Location: Oshawa
(43.9000°N, 78.8670°W)
Time: 07:14:31
(UTC-04:00)

PAYLOAD A - Visible Passes

Search period start: 01 September 2014 00:00
Search period end: 11 September 2014 00:00
Orbit: 693 x 832 km, 98.2° (Epoch: 31 August)

Date Brightness Start Highest point End Pass type
(mag) Time Alt. Az. Time Alt. Az. Time Alt. Az.
01 Sep 6.3 20:58:30 10° SSW 21:02:35 25° W 21:06:49 10° NW visible
02 Sep 4.8 20:19:58 10° S 20:24:50 55° W 20:29:57 10° NNW visible
03 Sep 6.8 21:23:56 10° SW 21:26:51 15° W 21:29:50 10° NW visible
04 Sep 5.8 20:44:26 10° SSW 20:48:57 33° W 20:53:40 10° NNW visible
05 Sep 4.4 20:06:16 10° S 20:11:18 74° WSW 20:16:34 10° NNW visible
06 Sep 6.6 21:09:25 10° SW 21:13:10 21° W 21:17:03 10° NW visible
07 Sep 5.3 20:30:32 10° S 20:35:22 44° W 20:40:25 10° NNW visible
08 Sep 7.0 21:35:26 10° WSW 21:37:29 12° W 21:39:35 10° WNW visible
09 Sep 6.2 20:55:13 10° SSW 20:59:32 27° W 21:04:01 10° NW visible
10 Sep 4.8 20:16:45 10° S 20:21:49 59° W 20:27:05 10° NNW visible
